Date,TemperatureHighF,TemperatureAvgF,TemperatureLowF,DewpointHighF,DewpointAvgF,DewpointLowF,HumidityHigh,HumidityAvg,HumidityLow,PressureMaxIn,PressureMinIn,WindSpeedMaxMPH,WindSpeedAvgMPH,GustSpeedMaxMPH,PrecipitationSumIn
2013-1-1,59.0,43.8,37.0,42.0,31.4,26.0,84,63,36,30.29,30.23,6,3,11,0.00
2013-1-2,64.0,43.2,34.0,37.0,26.6,21.0,71,53,31,30.26,30.14,6,3,8,0.00
2013-1-3,54.0,43.3,35.0,36.0,27.3,21.0,63,53,38,30.29,30.17,6,4,8,0.00
2013-1-4,62.0,45.1,37.0,39.0,30.4,25.0,72,58,35,30.31,30.20,6,2,9,0.08
2013-1-5,54.0,46.9,40.0,46.0,40.0,32.0,93,78,59,30.29,30.11,9,2,17,0.08
2013-1-6,47.0,44.4,39.0,46.0,43.2,38.0,97,96,93,30.21,30.08,5,2,11,0.08
2013-1-7,58.0,46.4,38.0,55.0,41.6,37.0,97,85,56,30.26,30.17,5,4,8,0.00
2013-1-8,67.0,51.0,43.0,59.0,41.2,34.0,95,72,42,30.26,30.15,5,3,9,0.00
2013-1-9,54.0,46.1,41.0,48.0,40.7,36.0,90,81,73,30.17,30.02,6,2,13,0.04
2013-1-10,57.0,43.8,38.0,41.0,31.0,26.0,86,62,37,30.22,30.09,6,4,16,0.00
2013-1-11,53.0,43.1,34.0,37.0,29.6,23.0,77,60,40,30.29,30.14,5,2,13,0.00
2013-1-12,57.0,40.4,34.0,38.0,24.3,8.0,84,57,20,30.26,30.17,6,3,9,0.00
2013-1-13,53.0,39.3,30.0,24.0,18.0,7.0,56,43,18,30.29,30.20,6,4,10,0.00
2013-1-14,58.0,39.3,30.0,18.0,9.7,-2.0,42,31,10,30.41,30.23,7,4,11,0.00
2013-1-15,60.0,41.4,34.0,28.0,17.7,13.0,54,40,21,30.47,30.41,6,4,9,0.00
2013-1-16,60.0,42.5,34.0,32.0,23.8,20.0,69,49,26,30.44,30.26,6,2,9,0.00
2013-1-17,63.0,46.5,36.0,38.0,27.1,23.0,69,49,27,30.29,30.17,6,2,8,0.00
2013-1-18,66.0,49.2,39.0,40.0,29.1,25.0,62,47,28,30.26,30.17,6,4,9,0.00
2013-1-19,64.0,50.1,42.0,35.0,29.2,25.0,53,45,24,30.26,30.17,6,4,8,0.00
2013-1-20,67.0,50.0,41.0,36.0,26.5,22.0,53,41,24,30.26,30.14,6,5,8,0.00
2013-1-21,64.0,50.0,40.0,33.0,26.1,21.0,50,40,25,30.20,30.11,6,4,8,0.00
2013-1-22,65.0,51.6,39.0,34.0,28.2,20.0,56,41,26,30.14,30.02,7,4,8,0.00
2013-1-23,61.0,53.8,51.0,47.0,35.2,12.0,85,52,16,30.11,29.99,7,2,9,0.04
2013-1-24,53.0,51.7,49.0,52.0,49.6,46.0,95,93,86,30.20,30.08,3,0,5,0.16
2013-1-25,64.0,55.9,52.0,61.0,53.3,49.0,95,91,83,30.22,30.08,5,2,8,0.00
2013-1-26,60.0,50.8,42.0,58.0,42.0,31.0,94,75,40,30.11,30.03,9,3,15,0.04
2013-1-27,59.0,46.0,38.0,41.0,31.7,22.0,79,60,30,30.20,30.11,6,3,11,0.00
2013-1-28,57.0,46.7,41.0,43.0,33.8,30.0,78,62,40,30.32,30.18,4,2,14,0.00
2013-1-29,57.0,47.4,40.0,45.0,36.2,34.0,83,67,47,30.38,30.29,6,3,11,0.00
2013-1-30,72.0,55.1,45.0,42.0,34.2,28.0,73,48,25,30.38,30.29,7,4,11,0.00
2013-1-31,64.0,53.9,41.0,47.0,36.5,31.0,76,54,36,30.32,30.20,4,2,8,0.00
2013-2-1,66.0,52.3,42.0,51.0,38.5,33.0,82,61,35,30.23,30.14,5,2,7,0.00
2013-2-2,58.0,49.7,44.0,51.0,42.3,36.0,86,76,63,30.32,30.23,4,1,8,0.00
2013-2-3,57.0,48.9,41.0,47.0,41.0,35.0,93,76,48,30.29,30.17,5,2,9,0.00
2013-2-4,58.0,46.8,40.0,50.0,42.0,37.0,94,84,66,30.20,30.11,5,3,7,0.00
2013-2-5,58.0,48.3,40.0,50.0,41.4,36.0,93,78,52,30.17,30.11,5,2,12,0.00
2013-2-6,59.0,46.6,38.0,51.0,36.3,32.0,90,70,37,30.23,30.14,6,3,12,0.00
2013-2-7,57.0,45.2,38.0,46.0,35.0,28.0,84,69,39,30.21,30.03,9,3,15,0.04
2013-2-8,52.0,43.8,38.0,45.0,34.6,25.0,91,71,42,30.03,29.96,6,2,13,0.00
2013-2-9,58.0,47.2,37.0,28.0,20.6,10.0,51,36,16,30.14,29.99,6,4,11,0.00
2013-2-10,61.0,47.1,37.0,30.0,24.6,21.0,59,43,25,30.14,30.05,6,3,11,0.00
2013-2-11,61.0,48.3,39.0,33.0,22.0,2.0,70,41,10,30.24,30.08,6,3,9,0.00
2013-2-12,60.0,48.3,38.0,40.0,29.0,22.0,71,48,31,30.38,30.24,6,3,9,0.00
2013-2-13,63.0,50.1,40.0,42.0,31.9,28.0,69,52,27,30.35,30.26,5,2,11,0.00
2013-2-14,68.0,53.7,40.0,47.0,33.0,28.0,84,50,24,30.27,30.20,6,4,11,0.00
2013-2-15,70.0,58.2,49.0,38.0,32.6,28.0,50,39,24,30.29,30.23,6,4,9,0.00
2013-2-16,67.0,56.0,47.0,41.0,34.7,27.0,63,46,33,30.26,30.08,6,3,9,0.00
2013-2-17,63.0,49.3,40.0,54.0,38.7,34.0,93,70,35,30.09,29.99,5,3,10,0.00
2013-2-18,52.0,45.8,40.0,46.0,38.0,31.0,92,75,51,30.08,30.02,10,3,17,0.00
2013-2-19,49.0,42.6,38.0,41.0,36.5,32.0,90,79,65,30.02,29.78,6,3,16,0.36
2013-2-20,59.0,45.5,33.0,43.0,30.8,23.0,83,60,28,30.08,29.84,8,3,15,0.00
2013-2-21,58.0,47.0,37.0,42.0,30.2,23.0,84,56,28,30.20,30.08,5,3,10,0.00
2013-2-22,63.0,49.0,39.0,37.0,29.4,23.0,72,49,24,30.29,30.20,6,2,11,0.00
2013-2-23,60.0,50.4,43.0,43.0,34.2,24.0,85,57,29,30.29,30.17,6,3,15,0.00
2013-2-24,61.0,50.4,42.0,25.0,16.0,2.0,43,29,10,30.29,30.20,5,4,14,0.00
2013-2-25,63.0,49.3,37.0,36.0,28.7,19.0,71,46,31,30.29,30.20,6,3,11,0.00
2013-2-26,65.0,50.7,39.0,36.0,21.9,3.0,75,42,10,30.23,30.17,6,4,11,0.00
2013-2-27,67.0,53.0,42.0,32.0,25.7,15.0,54,37,14,30.41,30.23,6,3,7,0.00
2013-2-28,68.0,53.8,43.0,51.0,41.4,32.0,86,65,40,30.47,30.39,5,3,12,0.00
2013-3-1,70.0,56.0,47.0,58.0,44.2,39.0,93,68,34,30.47,30.26,5,2,7,0.00
2013-3-2,70.0,59.3,52.0,49.0,44.6,42.0,74,60,38,30.27,30.11,4,1,5,0.00
2013-3-3,63.0,54.4,48.0,53.0,44.5,37.0,89,71,40,30.14,30.08,4,2,8,0.00
2013-3-4,59.0,49.8,42.0,45.0,40.2,35.0,82,71,50,30.17,30.08,4,2,11,0.00
2013-3-5,59.0,49.0,42.0,43.0,38.8,31.0,88,70,36,30.11,29.90,15,5,32,0.56
2013-3-6,57.0,49.3,41.0,46.0,38.4,31.0,89,68,40,30.11,29.90,16,6,33,0.60
2013-3-7,57.0,46.5,38.0,41.0,33.9,25.0,85,65,30,30.02,29.87,8,4,13,0.36
2013-3-8,61.0,49.1,43.0,51.0,39.4,34.0,94,72,40,30.11,29.84,11,4,19,0.08
2013-3-9,65.0,51.1,39.0,46.0,35.5,27.0,85,59,25,30.32,30.11,6,3,12,0.00
2013-3-10,69.0,51.5,41.0,48.0,31.0,9.0,81,52,10,30.35,30.29,6,2,8,0.00
2013-3-11,72.0,53.4,42.0,44.0,32.5,19.0,68,48,14,30.29,30.14,5,3,8,0.00
2013-3-12,72.0,54.8,44.0,54.0,41.7,34.0,92,65,30,30.17,30.11,4,2,9,0.00
2013-3-13,75.0,58.3,47.0,61.0,44.8,40.0,91,64,29,30.19,30.11,5,2,10,0.00
2013-3-14,70.0,58.3,48.0,54.0,43.6,26.0,87,61,22,30.20,30.11,4,2,9,0.00
2013-3-15,70.0,54.5,44.0,51.0,39.3,31.0,81,59,29,30.17,30.08,5,1,9,0.00
2013-3-16,70.0,54.5,44.0,58.0,43.6,37.0,94,70,32,30.14,30.08,5,2,10,0.00
2013-3-17,69.0,52.3,41.0,51.0,37.4,21.0,91,63,17,30.17,30.08,5,2,8,0.00
2013-3-18,66.0,52.7,41.0,49.0,38.8,33.0,87,62,34,30.17,30.08,7,1,12,0.00
2013-3-19,71.0,54.8,46.0,48.0,37.8,29.0,85,57,24,30.17,30.08,9,2,16,0.08
2013-3-20,67.0,57.8,52.0,58.0,49.0,42.0,94,75,43,30.17,30.11,9,3,15,0.00
2013-3-21,64.0,52.9,40.0,48.0,38.3,30.0,82,61,31,30.17,30.05,5,2,11,0.00
2013-3-22,68.0,52.8,42.0,39.0,23.6,2.0,77,42,10,30.14,30.05,5,2,11,0.00
2013-3-23,70.0,55.3,46.0,31.0,18.8,6.0,52,28,10,30.17,30.08,6,3,12,0.00
2013-3-24,69.0,53.2,42.0,47.0,36.9,27.0,82,56,32,30.11,30.02,5,2,11,0.00
2013-3-25,61.0,50.2,41.0,51.0,40.4,36.0,89,71,49,30.05,29.99,5,3,9,0.00
2013-3-26,66.0,50.4,42.0,47.0,39.9,37.0,87,70,35,30.05,29.96,4,2,9,0.00
2013-3-27,67.0,55.0,45.0,54.0,44.7,40.0,91,71,44,30.05,29.99,9,4,13,0.00
2013-3-28,71.0,59.8,54.0,54.0,49.1,43.0,93,70,38,30.13,30.05,5,2,9,0.00
2013-3-29,76.0,60.0,49.0,58.0,48.1,36.0,93,70,23,30.11,30.05,8,2,13,0.00
2013-3-30,70.0,58.7,53.0,54.0,46.2,-99.9,88,69,25,30.11,30.02,13,2,19,0.00
2013-3-31,67.0,57.6,51.0,56.0,47.7,40.0,93,72,40,30.11,30.02,10,4,17,0.08
2013-4-1,67.0,57.5,52.0,54.0,47.9,38.0,94,73,34,30.17,30.08,9,3,14,0.12
2013-4-2,69.0,57.0,46.0,54.0,46.0,41.0,91,69,38,30.20,30.11,5,2,10,0.00
2013-4-3,75.0,56.5,45.0,54.0,46.7,40.0,93,74,31,30.17,30.02,4,2,8,0.00
2013-4-4,67.0,57.5,51.0,54.0,49.4,46.0,94,76,52,30.14,30.05,11,4,19,3.60
2013-4-5,68.0,57.7,51.0,52.0,46.4,40.0,85,68,37,30.23,30.14,8,3,15,0.00
2013-4-6,65.0,55.2,48.0,55.0,46.6,42.0,91,74,50,30.23,30.17,5,2,10,0.00
2013-4-7,70.0,56.0,48.0,52.0,45.2,36.0,90,70,34,30.20,29.96,11,4,19,0.04
2013-4-8,66.0,53.2,46.0,47.0,33.6,19.0,87,54,16,30.05,29.87,8,5,21,0.08
2013-4-9,73.0,61.3,51.0,34.0,24.3,9.0,50,28,10,30.14,30.05,6,4,15,0.00
2013-4-10,85.0,71.3,57.0,42.0,31.6,21.0,55,26,10,30.20,30.09,5,3,13,0.00
2013-4-11,72.0,56.3,49.0,49.0,43.0,31.0,88,65,23,30.13,29.90,5,2,10,0.00
2013-4-12,75.0,54.3,43.0,52.0,41.5,33.0,90,66,22,29.96,29.87,5,2,10,0.00
2013-4-13,70.0,54.3,44.0,48.0,40.7,30.0,91,65,25,29.96,29.90,8,4,13,0.00
2013-4-14,70.0,52.3,40.0,48.0,35.4,26.0,88,58,20,29.96,29.90,5,2,11,0.00
2013-4-15,60.0,50.7,42.0,45.0,34.9,26.0,79,57,30,29.99,29.90,11,5,20,0.00
2013-4-16,66.0,49.3,37.0,39.0,25.9,7.0,74,47,10,30.17,29.99,8,2,15,0.00
2013-4-17,69.0,58.2,49.0,26.0,15.3,5.0,37,21,10,30.29,30.17,5,4,18,0.00
2013-4-18,74.0,58.2,44.0,37.0,23.9,11.0,56,32,10,30.29,30.23,5,3,9,0.00
2013-4-19,81.0,62.2,49.0,42.0,33.6,19.0,56,38,10,30.26,30.11,5,3,13,0.00
2013-4-20,78.0,59.0,48.0,50.0,37.5,16.0,79,54,10,30.14,30.02,6,2,10,0.00
2013-4-21,84.0,61.7,49.0,55.0,35.9,16.0,78,48,10,30.08,29.99,5,2,11,0.00
2013-4-22,87.0,69.5,58.0,43.0,32.9,20.0,54,31,10,30.02,29.90,5,3,11,0.00
2013-4-23,81.0,64.1,51.0,41.0,29.9,9.0,68,35,10,29.99,29.90,5,3,13,0.00
2013-4-24,72.0,56.0,44.0,49.0,43.5,39.0,89,66,35,29.99,29.87,4,3,11,0.00
2013-4-25,70.0,57.1,47.0,54.0,46.2,43.0,92,70,39,30.17,29.99,5,3,11,0.00
2013-4-26,69.0,57.7,49.0,48.0,45.5,42.0,79,65,40,30.26,30.17,5,2,10,0.00
2013-4-27,74.0,56.7,49.0,51.0,46.1,41.0,86,70,37,30.26,30.13,5,2,10,0.00
2013-4-28,83.0,60.2,48.0,57.0,46.1,36.0,93,66,19,30.13,29.93,5,2,9,0.00
2013-4-29,90.0,67.4,57.0,49.0,41.5,22.0,69,46,10,29.96,29.80,5,2,11,0.00
2013-4-30,82.0,61.0,50.0,55.0,42.1,18.0,88,59,10,29.90,29.84,5,3,11,0.00
2013-5-1,82.0,71.8,56.0,32.0,15.3,1.0,34,12,10,30.14,29.90,5,3,11,0.00
2013-5-2,90.0,72.4,56.0,34.0,24.5,11.0,41,20,10,30.20,30.11,5,3,11,0.00
2013-5-3,89.0,71.7,60.0,36.0,21.6,5.0,37,17,10,30.14,29.86,6,4,9,0.00
2013-5-4,89.0,70.5,56.0,44.0,30.4,20.0,48,26,10,29.84,29.62,9,4,14,0.00
2013-5-5,68.0,57.6,54.0,47.0,42.8,37.0,66,58,34,29.84,29.62,16,6,27,0.00
2013-5-6,68.0,58.9,50.0,51.0,43.5,39.0,80,58,35,29.99,29.84,11,4,17,0.00
2013-5-7,70.0,60.5,53.0,52.0,44.1,38.0,74,56,36,30.08,29.99,7,1,12,0.00
2013-5-8,68.0,57.9,50.0,50.0,46.7,39.0,78,67,47,30.20,30.08,6,2,12,0.00
2013-5-9,68.0,58.2,51.0,48.0,46.3,43.0,80,66,42,30.23,30.14,5,2,12,0.00
2013-5-10,71.0,58.9,53.0,52.0,46.3,-99.9,84,68,43,30.23,30.15,5,2,10,0.00
2013-5-11,82.0,60.5,51.0,62.0,48.1,-99.9,94,72,30,30.20,30.08,5,2,9,0.00
2013-5-12,80.0,61.4,51.0,59.0,48.7,44.0,87,67,35,30.17,30.08,5,2,11,0.00
2013-5-13,78.0,60.5,49.0,55.0,47.9,42.0,88,66,36,30.14,30.01,5,3,11,0.00
2013-5-14,78.0,60.4,49.0,53.0,44.6,33.0,91,61,31,30.08,29.99,5,4,10,0.00
2013-5-15,74.0,57.6,45.0,50.0,38.2,31.0,85,52,21,30.11,30.05,9,3,16,0.00
2013-5-16,69.0,54.6,51.0,53.0,27.9,-99.9,83,63,37,30.08,30.02,9,2,16,0.00
2013-5-17,71.0,56.4,46.0,49.0,35.3,-99.9,85,54,30,30.14,30.02,9,3,17,0.00
2013-5-18,73.0,59.6,44.0,46.0,39.9,31.0,82,52,21,30.17,30.11,5,2,13,0.00
2013-5-19,83.0,63.3,47.0,53.0,37.3,19.0,80,47,10,30.17,30.02,5,3,11,0.00
2013-5-20,89.0,66.2,52.0,51.0,35.1,17.0,65,40,10,30.05,29.99,10,3,18,0.00
2013-5-21,74.0,57.8,49.0,54.0,40.7,12.0,86,58,10,30.05,29.96,13,4,23,0.00
2013-5-22,68.0,53.1,48.0,36.0,25.7,7.0,61,39,10,30.05,29.96,9,5,17,0.00
2013-5-23,68.0,52.4,45.0,38.0,34.0,27.0,71,53,24,30.05,29.99,8,3,15,0.00
2013-5-24,71.0,52.2,42.0,42.0,33.4,29.0,72,52,22,30.05,29.99,12,4,21,0.00
2013-5-25,69.0,54.0,44.0,43.0,36.7,30.0,78,55,24,30.11,30.02,8,2,16,0.00
2013-5-26,74.0,59.2,48.0,50.0,43.9,37.0,79,60,28,30.17,30.11,6,2,13,0.00
2013-5-27,66.0,57.7,47.0,52.0,46.8,41.0,89,68,50,30.17,30.05,5,2,13,0.00
2013-5-28,69.0,61.2,54.0,57.0,51.1,40.0,90,72,39,30.05,29.96,6,2,12,0.00
2013-5-29,72.0,59.8,51.0,52.0,44.9,34.0,76,60,26,30.02,29.96,7,2,14,0.00
2013-5-30,74.0,57.0,45.0,49.0,38.8,28.0,83,55,24,30.02,29.99,5,3,11,0.00
2013-5-31,87.0,61.5,46.0,53.0,37.9,20.0,82,51,10,30.05,29.96,6,2,11,0.00
2013-6-1,92.0,66.0,53.0,53.0,43.0,25.0,79,53,10,29.99,29.84,4,2,11,0.00
2013-6-2,81.0,62.7,51.0,55.0,47.3,45.0,87,60,30,29.84,29.72,5,2,10,0.00
2013-6-3,80.0,59.5,48.0,54.0,46.3,43.0,90,65,31,29.90,29.75,5,2,12,0.00
2013-6-4,75.0,61.5,52.0,54.0,49.2,47.0,88,67,39,30.02,29.90,5,2,13,0.00
2013-6-5,72.0,61.7,55.0,54.0,49.7,47.0,84,67,42,30.02,29.96,5,2,12,0.00
2013-6-6,77.0,63.7,56.0,54.0,50.0,47.0,84,64,37,29.99,29.90,5,2,10,0.00
2013-6-7,89.0,68.6,57.0,57.0,51.7,48.0,88,61,27,29.95,29.78,5,3,11,0.00
2013-6-8,92.0,74.3,59.0,56.0,50.0,40.0,73,46,26,29.84,29.75,5,3,11,0.00
2013-6-9,79.0,65.8,58.0,60.0,50.6,-99.9,88,63,34,29.90,29.78,43,3,43,0.00
2013-6-10,73.0,61.8,51.0,51.0,45.7,43.0,82,58,34,29.99,29.87,11,4,17,0.00
2013-6-11,71.0,63.3,57.0,57.0,51.1,48.0,84,66,48,30.02,29.96,5,2,10,0.00
2013-6-12,69.0,56.1,50.0,53.0,44.8,27.0,80,66,30,30.05,29.96,5,2,9,0.00
2013-6-13,71.0,54.6,48.0,48.0,41.1,30.0,79,63,30,30.11,30.05,4,3,7,0.00
2013-6-14,85.0,60.2,52.0,54.0,42.7,18.0,75,58,10,30.02,29.87,5,2,11,0.00
2013-6-15,73.0,56.7,49.0,53.0,46.6,41.0,88,71,38,30.05,29.87,5,2,10,0.00
2013-6-16,70.0,53.8,48.0,57.0,47.2,39.0,92,80,38,30.14,30.05,4,3,9,0.00
2013-6-17,76.0,57.6,50.0,55.0,46.0,42.0,85,67,35,30.14,30.08,6,2,13,0.00
2013-6-18,71.0,55.8,49.0,53.0,46.4,35.0,89,73,28,30.10,30.05,8,3,16,0.00
2013-6-19,73.0,57.0,48.0,46.0,40.2,31.0,73,56,22,30.08,30.05,7,2,16,0.00
2013-6-20,68.0,51.2,47.0,50.0,39.8,35.0,79,66,37,30.08,30.02,4,2,10,0.00
2013-6-22,80.0,66.4,50.0,55.0,48.9,44.0,88,58,29,29.96,29.93,4,2,8,0.00
2013-6-23,72.0,63.5,53.0,59.0,52.6,46.0,88,69,50,29.93,29.87,7,2,13,0.00
2013-6-24,68.0,63.6,60.0,64.0,58.3,54.0,92,83,62,29.96,29.84,6,1,9,0.00
2013-6-25,74.0,66.9,61.0,60.0,56.1,53.0,85,69,51,30.02,29.93,9,4,17,0.04
2013-6-26,82.0,67.8,63.0,64.0,58.8,55.0,86,75,42,30.11,30.02,4,1,8,0.00
2013-6-27,80.0,65.2,59.0,65.0,56.9,51.0,91,77,46,30.11,30.08,4,2,5,0.00
2013-6-28,80.0,66.3,60.0,60.0,52.1,48.0,73,61,41,30.10,29.99,3,1,6,0.00
2013-6-29,78.0,70.4,67.0,51.0,49.5,46.0,52,48,38,29.99,29.87,5,3,6,0.00
2013-6-30,83.0,66.3,61.0,58.0,51.5,48.0,70,59,34,29.90,29.84,4,2,6,0.00
2013-7-1,79.0,64.6,58.0,61.0,54.0,49.0,86,71,40,29.90,29.87,4,2,6,0.00
2013-7-2,91.0,69.5,64.0,61.0,55.2,51.0,76,62,28,29.96,29.87,4,1,9,0.00
2013-7-3,85.0,68.6,61.0,64.0,57.1,52.0,90,69,37,29.96,29.84,5,2,8,0.00
2013-7-4,83.0,70.1,65.0,62.0,56.1,50.0,79,63,38,29.84,29.75,4,1,7,0.00
2013-7-5,75.0,62.3,56.0,54.0,49.7,47.0,84,65,38,29.84,29.78,4,2,9,0.00
2013-7-6,81.0,56.8,50.0,56.0,49.4,47.0,90,78,31,29.84,29.78,4,2,10,0.00
2013-7-7,76.0,58.7,50.0,60.0,50.2,46.0,92,76,37,29.90,29.84,4,2,7,0.00
2013-7-8,80.0,61.8,56.0,55.0,51.7,47.0,86,72,32,30.02,29.90,4,2,9,0.00
2013-7-9,79.0,60.4,54.0,63.0,53.6,50.0,93,80,40,30.07,30.02,4,3,8,0.00
2013-7-10,76.0,59.7,55.0,60.0,48.2,-99.9,89,71,42,30.02,29.93,4,1,8,0.00
2013-7-11,74.0,60.6,55.0,55.0,52.0,48.0,85,74,42,29.99,29.93,5,2,8,0.00
2013-7-12,73.0,57.6,53.0,55.0,50.6,47.0,90,79,40,29.96,29.93,4,2,8,0.00
2013-7-13,75.0,57.4,50.0,62.0,49.6,46.0,91,77,38,29.99,29.96,4,2,5,0.00
2013-7-14,72.0,57.4,51.0,61.0,50.2,47.0,91,78,46,30.05,29.96,5,2,7,0.00
2013-7-15,74.0,59.9,55.0,54.0,51.3,48.0,87,74,42,29.96,29.87,5,2,11,0.00
2013-7-16,68.0,58.4,51.0,54.0,49.3,46.0,87,73,46,30.08,29.90,5,2,9,0.00
2013-7-17,73.0,60.5,56.0,53.0,50.4,48.0,77,70,43,30.14,30.08,4,1,8,0.00
2013-7-18,74.0,59.9,55.0,58.0,51.8,47.0,91,76,43,30.11,29.99,4,2,7,0.00
2013-7-19,71.0,58.3,54.0,61.0,51.8,47.0,92,80,49,30.02,29.93,4,2,7,0.00
2013-7-20,77.0,59.8,55.0,59.0,50.9,-99.9,91,76,41,29.93,29.78,4,2,9,0.00
2013-7-21,78.0,62.7,56.0,57.0,52.2,50.0,88,71,40,29.93,29.80,4,2,9,0.00
2013-7-22,78.0,65.9,58.0,59.0,54.6,51.0,90,69,41,29.99,29.93,4,1,7,0.00
2013-7-23,77.0,64.4,61.0,63.0,56.6,52.0,90,77,47,30.04,29.99,3,1,7,0.00
2013-7-24,85.0,62.8,57.0,63.0,54.3,50.0,90,76,31,30.02,29.96,4,2,8,0.00
2013-7-25,74.0,60.9,55.0,62.0,52.9,50.0,89,76,49,30.08,29.96,4,2,7,0.00
2013-7-26,76.0,60.9,55.0,62.0,53.4,50.0,92,77,48,30.14,30.05,4,1,7,0.00
2013-7-27,75.0,62.0,57.0,57.0,54.4,51.0,90,78,47,30.08,29.93,4,2,8,0.00
2013-7-28,78.0,61.8,56.0,57.0,53.4,50.0,88,75,39,29.93,29.87,4,2,9,0.00
2013-7-29,74.0,58.4,51.0,57.0,50.5,47.0,92,77,42,30.05,29.87,4,2,10,0.00
2013-7-30,72.0,59.2,53.0,56.0,50.9,48.0,88,76,43,30.14,30.05,5,2,8,0.00
2013-7-31,71.0,58.7,54.0,55.0,51.8,44.0,88,79,47,30.11,30.08,4,2,8,0.00
2013-8-1,69.0,54.5,49.0,55.0,47.1,44.0,90,77,44,30.11,30.02,5,3,10,0.00
2013-8-2,73.0,56.2,49.0,59.0,48.0,44.0,91,75,41,30.02,29.96,4,3,8,0.00
2013-8-3,71.0,57.5,53.0,53.0,50.8,48.0,89,79,44,30.02,29.99,4,2,8,0.00
2013-8-4,71.0,60.7,57.0,54.0,52.7,50.0,85,76,47,30.05,29.99,5,2,11,0.00
2013-8-5,71.0,60.1,56.0,56.0,52.4,50.0,84,76,47,30.05,29.99,5,2,9,0.00
2013-8-6,71.0,60.5,57.0,55.0,52.8,50.0,86,77,47,30.08,30.02,4,2,8,0.00
2013-8-7,67.0,60.4,58.0,53.0,50.7,48.0,78,71,50,30.14,30.08,5,2,9,0.00
2013-8-8,73.0,61.4,58.0,55.0,52.5,49.0,81,73,45,30.08,29.99,5,2,10,0.00
2013-8-9,71.0,60.8,56.0,55.0,51.5,48.0,82,72,50,30.05,29.96,4,1,7,0.00
2013-8-10,74.0,62.5,58.0,57.0,54.2,52.0,88,76,46,30.08,30.04,6,1,9,0.00
2013-8-11,76.0,62.8,57.0,59.0,54.3,51.0,86,75,44,30.08,29.99,4,2,9,0.00
2013-8-12,69.0,58.4,55.0,63.0,53.5,48.0,93,84,55,30.04,29.99,3,2,6,0.00
2013-8-13,72.0,56.1,52.0,61.0,47.5,-99.9,92,79,48,30.02,29.99,4,2,6,0.00
2013-8-14,74.0,58.5,51.0,57.0,48.5,-99.9,91,75,49,30.02,29.99,5,3,8,0.00
2013-8-15,76.0,56.2,59.0,64.0,33.2,-99.9,92,70,44,30.02,29.96,5,3,12,0.00
2013-8-16,78.0,61.9,59.0,69.0,52.4,-99.9,92,80,52,30.04,29.99,4,2,8,0.00
2013-8-17,75.0,61.4,54.0,58.0,50.1,-99.9,86,71,47,30.05,29.93,5,2,8,0.00
2013-8-18,78.0,61.7,54.0,65.0,54.2,51.0,92,79,41,29.93,29.84,5,3,7,0.00
2013-8-19,75.0,55.7,65.0,60.0,18.8,-99.9,70,54,29,29.96,29.90,5,2,11,0.12
2013-8-20,75.0,63.0,60.0,60.0,52.6,-99.9,88,76,46,29.93,29.90,4,1,8,0.00
2013-8-21,70.0,61.0,55.0,58.0,52.9,50.0,87,76,53,29.99,29.90,4,1,10,0.00
2013-8-22,71.0,61.5,57.0,56.0,53.2,50.0,86,75,52,30.02,29.93,6,2,10,0.00
2013-8-23,68.0,61.0,56.0,55.0,52.9,49.0,84,75,50,29.99,29.87,5,1,7,0.00
2013-8-24,70.0,57.7,53.0,60.0,50.0,-99.9,93,81,52,29.96,29.90,4,2,7,0.00
2013-8-25,84.0,67.2,60.0,60.0,57.0,54.0,87,73,37,29.99,29.93,5,2,13,0.00
2013-8-28,74.0,67.7,65.0,61.0,59.5,57.0,88,75,59,29.99,29.93,5,2,9,0.00
2013-8-29,76.0,65.6,62.0,62.0,58.6,55.0,89,79,52,30.11,29.99,4,2,7,0.00
2013-8-30,79.0,62.5,57.0,65.0,56.2,53.0,92,82,46,30.11,29.99,4,2,5,0.00
2013-8-31,73.0,61.2,57.0,60.0,49.7,-99.9,83,70,55,30.02,29.96,4,1,6,0.00
2013-9-6,75.0,57.6,53.0,56.0,47.4,44.0,77,69,42,30.05,29.99,3,2,8,0.00
2013-9-7,66.0,52.8,66.0,51.0,20.6,-99.9,58,46,57,29.93,29.87,4,3,5,0.00
2013-9-8,77.0,62.4,57.0,61.0,51.8,45.0,87,69,43,29.93,29.84,4,1,6,0.00
2013-9-9,84.0,65.5,58.0,61.0,52.7,47.0,83,65,35,29.87,29.78,4,1,6,0.00
2013-9-10,72.0,62.9,58.0,60.0,54.2,51.0,90,74,54,29.93,29.78,4,1,7,0.00
2013-9-11,73.0,61.6,54.0,57.0,51.2,48.0,88,70,44,30.02,29.93,4,2,7,0.00
2013-9-12,72.0,64.5,60.0,59.0,55.8,52.0,83,74,55,30.02,29.93,4,1,11,0.00
2013-9-13,71.0,62.8,57.0,59.0,55.2,50.0,87,77,54,29.96,29.84,4,1,8,0.00
2013-9-14,72.0,61.0,55.0,57.0,51.1,-99.9,88,74,50,29.87,29.80,4,2,11,0.00
2013-9-15,71.0,60.7,55.0,57.0,53.2,50.0,88,78,55,29.93,29.84,4,1,7,0.00
2013-9-16,74.0,60.9,56.0,60.0,54.1,45.0,90,79,50,29.93,29.90,5,2,10,0.00
2013-9-17,68.0,58.6,54.0,54.0,48.9,45.0,86,70,52,29.93,29.90,4,1,7,0.00
2013-9-18,55.0,53.8,53.0,50.0,47.2,45.0,83,78,71,29.93,29.90,3,2,6,0.00
2013-9-19,66.0,58.8,53.0,48.0,43.7,38.0,64,58,49,29.90,29.84,3,1,5,0.00
2013-9-20,71.0,60.4,52.0,53.0,48.0,38.0,82,64,47,29.90,29.80,8,3,15,0.00
2013-9-23,68.0,56.7,51.0,56.0,48.6,44.0,88,75,49,30.05,30.02,4,1,6,0.00
2013-9-24,70.0,59.5,55.0,56.0,50.5,40.0,85,73,52,30.05,29.99,5,2,15,0.00
2013-9-25,56.0,54.9,54.0,39.0,37.8,37.0,53,52,51,29.96,29.87,6,5,11,0.00
2013-9-26,56.0,53.1,51.0,38.0,37.3,36.0,61,55,49,29.93,29.87,4,4,7,0.00
2013-9-28,60.0,49.8,59.0,50.0,23.9,-99.9,70,56,62,30.14,30.08,1,0,4,0.00
2013-9-29,71.0,57.4,53.0,55.0,43.9,-99.9,83,69,50,30.14,30.08,5,2,8,0.00
2013-9-30,74.0,62.5,57.0,59.0,54.5,51.0,89,76,48,30.11,30.02,4,3,10,0.00
2013-10-1,56.0,56.0,56.0,42.0,42.0,42.0,59,59,59,29.99,29.99,2,2,6,0.00
2013-10-2,69.0,55.4,50.0,53.0,43.4,35.0,75,65,41,30.05,29.96,5,2,6,0.00